When you browse on this site, cookies collect data to enhance your experience and personalize the content and advertising you see.
Visit our Privacy Policy to learn more. By continuing to use the site, you agree to this use of cookies and data.
  • In Spain
  • List of Countries
  • For 7 days
  • Water Temperature
  • Satellite Maps
  • Weather Map
  • Weather Widgets
  • user-avatar
    Login

    Hourly Weather Cartagena

    Today, 20 January, Sunday

    Time Temperature Precipitation Wind Pressure Humidity
    00:00 +12°C° 0 mm 2 mps 758 mmHg 82%
    01:00 +12°C° 0.5 mm 2 mps 757 mmHg 84%
    02:00 +11°C° 0.5 mm 1 mps 757 mmHg 85%
    03:00 +10°C° 0.5 mm 0 mps 756 mmHg 87%
    04:00 +10°C° 0.2 mm 0 mps 756 mmHg 88%
    05:00 +10°C° 0.2 mm 1 mps 756 mmHg 89%
    06:00 +10°C° 0.2 mm 1 mps 755 mmHg 90%
    07:00 +11°C° 0.1 mm 1 mps 755 mmHg 84%
    08:00 +12°C° 0.1 mm 1 mps 755 mmHg 78%
    09:00 +13°C° 0.1 mm 1 mps 755 mmHg 73%
    10:00 +14°C° 0.2 mm 1 mps 755 mmHg 68%
    11:00 +16°C° 0.2 mm 1 mps 755 mmHg 63%
    12:00 +18°C° 0.2 mm 1 mps 756 mmHg 57%
    13:00 +17°C° 0 mm 3 mps 756 mmHg 54%
    14:00 +16°C° 0 mm 5 mps 756 mmHg 51%
    15:00 +16°C° 0 mm 6 mps 756 mmHg 48%
    16:00 +15°C° 0 mm 6 mps 757 mmHg 52%
    17:00 +13°C° 0 mm 5 mps 758 mmHg 55%
    18:00 +12°C° 0 mm 4 mps 758 mmHg 59%
    19:00 +10°C° 0 mm 5 mps 759 mmHg 57%
    20:00 +10°C° 0 mm 6 mps 760 mmHg 54%
    21:00 +10°C° 0 mm 7 mps 760 mmHg 52%
    22:00 +9°C° 0 mm 7 mps 761 mmHg 53%
    23:00 +9°C° 0 mm 8 mps 761 mmHg 55%

    Tomorrow, 21 January, Monday

    Time Temperature Precipitation Wind Pressure Humidity
    00:00 +9°C° 0 mm 8 mps 761 mmHg 57%
    01:00 +7°C° 0 mm 8 mps 762 mmHg 58%
    02:00 +7°C° 0 mm 8 mps 762 mmHg 59%
    03:00 +6°C° 0 mm 8 mps 762 mmHg 60%
    04:00 +6°C° 0 mm 7 mps 762 mmHg 60%
    05:00 +6°C° 0 mm 7 mps 762 mmHg 61%
    06:00 +5°C° 0 mm 7 mps 762 mmHg 61%
    07:00 +6°C° 0 mm 8 mps 763 mmHg 59%
    08:00 +6°C° 0 mm 8 mps 763 mmHg 57%
    09:00 +7°C° 0 mm 8 mps 764 mmHg 55%
    10:00 +9°C° 0 mm 7 mps 764 mmHg 51%
    11:00 +11°C° 0 mm 7 mps 764 mmHg 46%
    12:00 +12°C° 0 mm 7 mps 764 mmHg 42%
    13:00 +14°C° 0 mm 6 mps 764 mmHg 39%
    14:00 +14°C° 0 mm 5 mps 763 mmHg 37%
    15:00 +14°C° 0 mm 5 mps 763 mmHg 35%
    16:00 +13°C° 0 mm 4 mps 763 mmHg 37%
    17:00 +12°C° 0 mm 4 mps 764 mmHg 40%
    18:00 +10°C° 0 mm 3 mps 764 mmHg 43%
    19:00 +10°C° 0 mm 4 mps 764 mmHg 44%
    20:00 +9°C° 0 mm 5 mps 765 mmHg 45%
    21:00 +8°C° 0 mm 6 mps 765 mmHg 46%
    22:00 +7°C° 0 mm 6 mps 765 mmHg 46%
    23:00 +7°C° 0 mm 5 mps 765 mmHg 46%

    Day after tomorrow, 22 January, Tuesday

    Time Temperature Precipitation Wind Pressure Humidity
    00:00 +6°C° 0 mm 5 mps 765 mmHg 46%
    01:00 +5°C° 0 mm 6 mps 765 mmHg 49%
    02:00 +5°C° 0 mm 6 mps 765 mmHg 52%
    03:00 +4°C° 0 mm 6 mps 765 mmHg 55%
    04:00 +4°C° 0 mm 6 mps 765 mmHg 55%
    05:00 +4°C° 0 mm 6 mps 764 mmHg 56%
    06:00 +3°C° 0 mm 6 mps 764 mmHg 56%
    07:00 +5°C° 0 mm 5 mps 764 mmHg 54%
    08:00 +6°C° 0 mm 4 mps 764 mmHg 52%
    09:00 +7°C° 0 mm 4 mps 764 mmHg 50%
    10:00 +10°C° 0 mm 4 mps 763 mmHg 44%
    11:00 +12°C° 0 mm 4 mps 763 mmHg 39%
    12:00 +13°C° 0 mm 4 mps 762 mmHg 33%
    13:00 +14°C° 0 mm 5 mps 761 mmHg 31%
    14:00 +15°C° 0 mm 5 mps 760 mmHg 29%
    15:00 +16°C° 0 mm 5 mps 759 mmHg 27%
    16:00 +15°C° 0 mm 5 mps 759 mmHg 33%
    17:00 +13°C° 0 mm 4 mps 758 mmHg 39%
    18:00 +12°C° 0 mm 4 mps 758 mmHg 44%
    19:00 +12°C° 0 mm 5 mps 758 mmHg 47%
    20:00 +11°C° 0 mm 6 mps 758 mmHg 49%
    21:00 +11°C° 0 mm 7 mps 758 mmHg 52%
    22:00 +10°C° 0 mm 8 mps 758 mmHg 54%
    23:00 +10°C° 0 mm 9 mps 758 mmHg 55%

    23 January, Wednesday

    Time Temperature Precipitation Wind Pressure Humidity
    00:00 +9°C° 0 mm 10 mps 758 mmHg 57%
    01:00 +8°C° 0 mm 10 mps 758 mmHg 56%
    02:00 +8°C° 0 mm 10 mps 758 mmHg 55%
    03:00 +7°C° 0 mm 10 mps 758 mmHg 53%
    04:00 +7°C° 0 mm 10 mps 758 mmHg 52%
    05:00 +7°C° 0 mm 10 mps 758 mmHg 52%
    06:00 +7°C° 0 mm 10 mps 758 mmHg 51%
    07:00 +7°C° 0 mm 10 mps 758 mmHg 49%
    08:00 +8°C° 0 mm 10 mps 758 mmHg 47%
    09:00 +9°C° 0 mm 10 mps 758 mmHg 45%
    10:00 +12°C° 0 mm 10 mps 757 mmHg 40%
    11:00 +14°C° 0 mm 10 mps 757 mmHg 35%
    12:00 +18°C° 0 mm 10 mps 756 mmHg 31%
    13:00 +17°C° 0 mm 10 mps 755 mmHg 32%
    14:00 +17°C° 0 mm 11 mps 755 mmHg 33%
    15:00 +17°C° 0 mm 11 mps 754 mmHg 35%
    16:00 +16°C° 0 mm 10 mps 754 mmHg 39%
    17:00 +15°C° 0 mm 9 mps 754 mmHg 44%
    18:00 +12°C° 0 mm 8 mps 754 mmHg 48%
    19:00 +12°C° 0 mm 7 mps 755 mmHg 50%
    20:00 +12°C° 0 mm 7 mps 755 mmHg 52%
    21:00 +13°C° 0 mm 6 mps 755 mmHg 54%
    22:00 +13°C° 0.2 mm 6 mps 755 mmHg 56%
    23:00 +13°C° 0.2 mm 6 mps 755 mmHg 58%

    24 January, Thursday

    Time Temperature Precipitation Wind Pressure Humidity
    00:00 +11°C° 0.2 mm 6 mps 755 mmHg 59%
    01:00 +11°C° 0.1 mm 6 mps 755 mmHg 60%
    02:00 +11°C° 0.1 mm 6 mps 755 mmHg 60%
    03:00 +11°C° 0.1 mm 7 mps 755 mmHg 61%
    04:00 +11°C° 0 mm 7 mps 755 mmHg 62%
    05:00 +10°C° 0 mm 8 mps 756 mmHg 63%
    06:00 +10°C° 0 mm 9 mps 756 mmHg 64%
    07:00 +9°C° 0 mm 10 mps 757 mmHg 59%
    08:00 +9°C° 0 mm 11 mps 758 mmHg 54%
    09:00 +11°C° 0 mm 11 mps 758 mmHg 48%
    10:00 +11°C° 0 mm 11 mps 758 mmHg 42%
    11:00 +12°C° 0 mm 11 mps 759 mmHg 36%
    12:00 +13°C° 0 mm 11 mps 759 mmHg 30%
    13:00 +14°C° 0 mm 10 mps 759 mmHg 29%
    14:00 +15°C° 0 mm 9 mps 758 mmHg 28%
    15:00 +15°C° 0 mm 8 mps 758 mmHg 27%
    16:00 +13°C° 0 mm 8 mps 758 mmHg 32%
    17:00 +12°C° 0 mm 7 mps 759 mmHg 37%
    18:00 +11°C° 0 mm 6 mps 759 mmHg 42%
    19:00 +11°C° 0 mm 7 mps 759 mmHg 45%
    20:00 +10°C° 0 mm 8 mps 760 mmHg 47%
    21:00 +10°C° 0 mm 8 mps 760 mmHg 50%
    22:00 +10°C° 0 mm 7 mps 760 mmHg 52%
    23:00 +9°C° 0 mm 6 mps 760 mmHg 53%

    25 January, Friday

    Time Temperature Precipitation Wind Pressure Humidity
    00:00 +9°C° 0 mm 6 mps 760 mmHg 55%
    01:00 +9°C° 0 mm 5 mps 760 mmHg 54%
    02:00 +9°C° 0 mm 5 mps 759 mmHg 54%
    03:00 +10°C° 0 mm 5 mps 759 mmHg 53%
    04:00 +10°C° 0 mm 6 mps 759 mmHg 54%
    05:00 +11°C° 0 mm 7 mps 758 mmHg 54%
    06:00 +12°C° 0 mm 7 mps 758 mmHg 55%
    07:00 +12°C° 0 mm 8 mps 759 mmHg 54%
    08:00 +13°C° 0 mm 9 mps 759 mmHg 53%
    09:00 +13°C° 0 mm 9 mps 760 mmHg 52%
    10:00 +16°C° 0 mm 10 mps 760 mmHg 48%
    11:00 +17°C° 0 mm 10 mps 760 mmHg 43%
    12:00 +19°C° 0 mm 11 mps 760 mmHg 39%
    13:00 +19°C° 0 mm 10 mps 761 mmHg 38%
    14:00 +19°C° 0 mm 9 mps 761 mmHg 37%
    15:00 +19°C° 0 mm 9 mps 761 mmHg 36%
    16:00 +17°C° 0 mm 7 mps 761 mmHg 44%
    17:00 +15°C° 0 mm 6 mps 762 mmHg 53%
    18:00 +13°C° 0 mm 5 mps 762 mmHg 61%
    19:00 +12°C° 0 mm 4 mps 763 mmHg 67%
    20:00 +11°C° 0 mm 3 mps 764 mmHg 73%
    21:00 +9°C° 0 mm 2 mps 764 mmHg 78%
    22:00 +9°C° 0 mm 2 mps 764 mmHg 78%
    23:00 +9°C° 0 mm 2 mps 765 mmHg 78%
    Show more